Year,Month,Day,Hour,Minute,Value (Times are PST for temperature in C)
2007,07,09,00,00,16.40
2007,07,09,00,01,16.40
2007,07,09,00,02,16.40
2007,07,09,00,03,16.40
2007,07,09,00,04,16.40
2007,07,09,00,05,16.40
2007,07,09,00,06,16.40
2007,07,09,00,07,16.40
2007,07,09,00,08,16.40
2007,07,09,00,09,16.40
2007,07,09,00,10,16.40
2007,07,09,00,11,16.40
2007,07,09,00,12,16.40
2007,07,09,00,13,16.40
2007,07,09,00,14,16.40
2007,07,09,00,15,16.40
2007,07,09,00,16,16.40
2007,07,09,00,17,16.40
2007,07,09,00,18,16.40
2007,07,09,00,19,16.30
2007,07,09,00,20,16.30
2007,07,09,00,21,16.30
2007,07,09,00,22,16.30
2007,07,09,00,23,16.30
2007,07,09,00,24,16.30
2007,07,09,00,25,16.30
2007,07,09,00,26,16.30
2007,07,09,00,27,16.30
2007,07,09,00,28,16.30
2007,07,09,00,29,16.30
2007,07,09,00,30,16.30
2007,07,09,00,31,16.30
2007,07,09,00,32,16.30
2007,07,09,00,33,16.30
2007,07,09,00,34,16.30
2007,07,09,00,35,16.30
2007,07,09,00,36,16.30
2007,07,09,00,37,16.30
2007,07,09,00,38,16.20
2007,07,09,00,39,16.20
2007,07,09,00,40,16.20
2007,07,09,00,41,16.10
2007,07,09,00,42,16.10
2007,07,09,00,43,16.10
2007,07,09,00,44,16.10
2007,07,09,00,45,16.10
2007,07,09,00,46,16.10
2007,07,09,00,47,16.10
2007,07,09,00,48,16.10
2007,07,09,00,49,16.10
2007,07,09,00,50,15.90
2007,07,09,00,51,15.90
2007,07,09,00,52,15.90
2007,07,09,00,53,15.90
2007,07,09,00,54,15.80
2007,07,09,00,55,15.80
2007,07,09,00,56,15.80
2007,07,09,00,57,15.80
2007,07,09,00,58,15.80
2007,07,09,00,59,15.70
2007,07,09,01,00,15.70
2007,07,09,01,01,15.70
2007,07,09,01,02,15.60
2007,07,09,01,03,15.60
2007,07,09,01,04,15.60
2007,07,09,01,05,15.60
2007,07,09,01,06,15.60
2007,07,09,01,07,15.60
2007,07,09,01,08,15.60
2007,07,09,01,09,15.60
2007,07,09,01,10,15.60
2007,07,09,01,11,15.50
2007,07,09,01,12,15.50
2007,07,09,01,13,15.60
2007,07,09,01,14,15.60
2007,07,09,01,15,15.60
2007,07,09,01,16,15.60
2007,07,09,01,17,15.60
2007,07,09,01,18,15.60
2007,07,09,01,19,15.60
2007,07,09,01,20,15.60
2007,07,09,01,21,15.50
2007,07,09,01,22,15.50
2007,07,09,01,23,15.50
2007,07,09,01,24,15.50
2007,07,09,01,25,15.50
2007,07,09,01,26,15.40
2007,07,09,01,27,15.40
2007,07,09,01,28,15.40
2007,07,09,01,29,15.30
2007,07,09,01,30,15.30
2007,07,09,01,31,15.30
2007,07,09,01,32,15.30
2007,07,09,01,33,15.20
2007,07,09,01,34,15.20
2007,07,09,01,35,15.20
2007,07,09,01,36,15.10
2007,07,09,01,37,15.10
2007,07,09,01,38,15.00
2007,07,09,01,39,15.00
2007,07,09,01,40,15.00
2007,07,09,01,41,14.90
2007,07,09,01,42,14.90
2007,07,09,01,43,14.90
2007,07,09,01,44,14.90
2007,07,09,01,45,14.80
2007,07,09,01,46,14.80
2007,07,09,01,47,14.80
2007,07,09,01,48,14.80
2007,07,09,01,49,14.80
2007,07,09,01,50,14.80
2007,07,09,01,51,14.70
2007,07,09,01,52,14.70
2007,07,09,01,53,14.70
2007,07,09,01,54,14.60
2007,07,09,01,55,14.60
2007,07,09,01,56,14.60
2007,07,09,01,57,14.50
2007,07,09,01,58,14.50
2007,07,09,01,59,14.50
2007,07,09,02,00,14.50
2007,07,09,02,01,14.50
2007,07,09,02,02,14.50
2007,07,09,02,03,14.40
2007,07,09,02,04,14.40
2007,07,09,02,05,14.40
2007,07,09,02,06,14.40
2007,07,09,02,07,14.40
2007,07,09,02,08,14.30
2007,07,09,02,09,14.30
2007,07,09,02,10,14.30
2007,07,09,02,11,14.30
2007,07,09,02,12,14.20
2007,07,09,02,13,14.20
2007,07,09,02,14,14.20
2007,07,09,02,15,14.20
2007,07,09,02,16,14.20
2007,07,09,02,17,14.20
2007,07,09,02,18,14.20
2007,07,09,02,19,14.20
2007,07,09,02,20,14.20
2007,07,09,02,21,14.20
2007,07,09,02,22,14.20
2007,07,09,02,23,14.20
2007,07,09,02,24,14.20
2007,07,09,02,25,14.20
2007,07,09,02,26,14.20
2007,07,09,02,27,14.10
2007,07,09,02,28,14.10
2007,07,09,02,29,14.10
2007,07,09,02,30,14.10
2007,07,09,02,31,14.00
2007,07,09,02,32,14.00
2007,07,09,02,33,14.00
2007,07,09,02,34,14.00
2007,07,09,02,35,13.90
2007,07,09,02,36,13.90
2007,07,09,02,37,13.90
2007,07,09,02,38,13.90
2007,07,09,02,39,13.90
2007,07,09,02,40,13.80
2007,07,09,02,41,13.80
2007,07,09,02,42,13.80
2007,07,09,02,43,13.80
2007,07,09,02,44,13.80
2007,07,09,02,45,13.70
2007,07,09,02,46,13.70
2007,07,09,02,47,13.70
2007,07,09,02,48,13.70
2007,07,09,02,49,13.70
2007,07,09,02,50,13.70
2007,07,09,02,51,13.70
2007,07,09,02,52,13.70
2007,07,09,02,53,13.70
2007,07,09,02,54,13.70
2007,07,09,02,55,13.60
2007,07,09,02,56,13.60
2007,07,09,02,57,13.60
2007,07,09,02,58,13.60
2007,07,09,02,59,13.60
2007,07,09,03,00,13.50
2007,07,09,03,01,13.50
2007,07,09,03,02,13.50
2007,07,09,03,03,13.50
2007,07,09,03,04,13.50
2007,07,09,03,05,13.40
2007,07,09,03,06,13.40
2007,07,09,03,07,13.40
2007,07,09,03,08,13.40
2007,07,09,03,09,13.30
2007,07,09,03,10,13.30
2007,07,09,03,11,13.30
2007,07,09,03,12,13.30
2007,07,09,03,13,13.30
2007,07,09,03,14,13.30
2007,07,09,03,15,13.30
2007,07,09,03,16,13.30
2007,07,09,03,17,13.20
2007,07,09,03,18,13.20
2007,07,09,03,19,13.20
2007,07,09,03,20,13.20
2007,07,09,03,21,13.10
2007,07,09,03,22,13.10
2007,07,09,03,23,13.10
2007,07,09,03,24,13.00
2007,07,09,03,25,13.00
2007,07,09,03,26,13.00
2007,07,09,03,27,13.00
2007,07,09,03,28,12.90
2007,07,09,03,29,12.90
2007,07,09,03,30,12.90
2007,07,09,03,31,12.90
2007,07,09,03,32,12.80
2007,07,09,03,33,12.80
2007,07,09,03,34,12.80
2007,07,09,03,35,12.80
2007,07,09,03,36,12.80
2007,07,09,03,37,12.80
2007,07,09,03,38,12.80
2007,07,09,03,39,12.80
2007,07,09,03,40,12.80
2007,07,09,03,41,12.80
2007,07,09,03,42,12.80
2007,07,09,03,43,12.80
2007,07,09,03,44,12.80
2007,07,09,03,45,12.80
2007,07,09,03,46,12.80
2007,07,09,03,47,12.80
2007,07,09,03,48,12.70
2007,07,09,03,49,12.70
2007,07,09,03,50,12.70
2007,07,09,03,51,12.70
2007,07,09,03,52,12.70
2007,07,09,03,53,12.70
2007,07,09,03,54,12.60
2007,07,09,03,55,12.60
2007,07,09,03,56,12.60
2007,07,09,03,57,12.60
2007,07,09,03,58,12.60
2007,07,09,03,59,12.60
2007,07,09,04,00,12.60
2007,07,09,04,01,12.50
2007,07,09,04,02,12.50
2007,07,09,04,03,12.50
2007,07,09,04,04,12.50
2007,07,09,04,05,12.50
2007,07,09,04,06,12.50
2007,07,09,04,07,12.50
2007,07,09,04,08,12.40
2007,07,09,04,09,12.40
2007,07,09,04,10,12.40
2007,07,09,04,11,12.40
2007,07,09,04,12,12.40
2007,07,09,04,13,12.40
2007,07,09,04,14,12.40
2007,07,09,04,15,12.40
2007,07,09,04,16,12.40
2007,07,09,04,17,12.40
2007,07,09,04,18,12.30
2007,07,09,04,19,12.30
2007,07,09,04,20,12.30
2007,07,09,04,21,12.30
2007,07,09,04,22,12.40
2007,07,09,04,23,12.40
2007,07,09,04,24,12.40
2007,07,09,04,25,12.40
2007,07,09,04,26,12.40
2007,07,09,04,27,12.40
2007,07,09,04,28,12.40
2007,07,09,04,29,12.40
2007,07,09,04,30,12.40
2007,07,09,04,31,12.40
2007,07,09,04,32,12.40
2007,07,09,04,33,12.40
2007,07,09,04,34,12.30
2007,07,09,04,35,12.30
2007,07,09,04,36,12.30
2007,07,09,04,37,12.30
2007,07,09,04,38,12.30
2007,07,09,04,39,12.30
2007,07,09,04,40,12.30
2007,07,09,04,41,12.30
2007,07,09,04,42,12.30
2007,07,09,04,43,12.30
2007,07,09,04,44,12.30
2007,07,09,04,45,12.30
2007,07,09,04,46,12.30
2007,07,09,04,47,12.30
2007,07,09,04,48,12.30
2007,07,09,04,49,12.30
2007,07,09,04,50,12.30
2007,07,09,04,51,12.30
2007,07,09,04,52,12.30
2007,07,09,04,53,12.30
2007,07,09,04,54,12.20
2007,07,09,04,55,12.20
2007,07,09,04,56,12.20
2007,07,09,04,57,12.20
2007,07,09,04,58,12.20
2007,07,09,04,59,12.20
2007,07,09,05,00,12.20
2007,07,09,05,01,12.20
2007,07,09,05,02,12.10
2007,07,09,05,03,12.10
2007,07,09,05,04,12.10
2007,07,09,05,05,12.10
2007,07,09,05,06,12.10
2007,07,09,05,07,12.10
2007,07,09,05,08,12.00
2007,07,09,05,09,12.00
2007,07,09,05,10,12.00
2007,07,09,05,11,12.00
2007,07,09,05,12,12.00
2007,07,09,05,13,12.00
2007,07,09,05,14,12.00
2007,07,09,05,15,12.00
2007,07,09,05,16,12.00
2007,07,09,05,17,12.00
2007,07,09,05,18,12.00
2007,07,09,05,19,12.00
2007,07,09,05,20,12.00
2007,07,09,05,21,12.00
2007,07,09,05,22,12.00
2007,07,09,05,23,12.00
2007,07,09,05,24,12.00
2007,07,09,05,25,12.00
2007,07,09,05,26,12.00
2007,07,09,05,27,12.00
2007,07,09,05,28,11.90
2007,07,09,05,29,11.90
2007,07,09,05,30,11.90
2007,07,09,05,31,11.90
2007,07,09,05,32,11.90
2007,07,09,05,33,11.90
2007,07,09,05,34,11.80
2007,07,09,05,35,11.90
2007,07,09,05,36,11.90
2007,07,09,05,37,11.90
2007,07,09,05,38,11.90
2007,07,09,05,39,11.90
2007,07,09,05,40,11.90
2007,07,09,05,41,11.90
2007,07,09,05,42,11.90
2007,07,09,05,43,12.00
2007,07,09,05,44,12.00
2007,07,09,05,45,12.00
2007,07,09,05,46,12.00
2007,07,09,05,47,12.00
2007,07,09,05,48,12.10
2007,07,09,05,49,12.10
2007,07,09,05,50,12.10
2007,07,09,05,51,12.10
2007,07,09,05,52,12.10
2007,07,09,05,53,12.10
2007,07,09,05,54,12.10
2007,07,09,05,55,12.10
2007,07,09,05,56,12.20
2007,07,09,05,57,12.20
2007,07,09,05,58,12.20
2007,07,09,05,59,12.20
2007,07,09,06,00,12.20
2007,07,09,06,01,12.20
2007,07,09,06,02,12.20
2007,07,09,06,03,12.30
2007,07,09,06,04,12.30
2007,07,09,06,05,12.30
2007,07,09,06,06,12.40
2007,07,09,06,07,12.40
2007,07,09,06,08,12.40
2007,07,09,06,09,12.50
2007,07,09,06,10,12.50
2007,07,09,06,11,12.50
2007,07,09,06,12,12.60
2007,07,09,06,13,12.60
2007,07,09,06,14,12.70
2007,07,09,06,15,12.70
2007,07,09,06,16,12.70
2007,07,09,06,17,12.70
2007,07,09,06,18,12.80
2007,07,09,06,19,12.80
2007,07,09,06,20,12.80
2007,07,09,06,21,12.90
2007,07,09,06,22,13.00
2007,07,09,06,23,13.00
2007,07,09,06,24,13.10
2007,07,09,06,25,13.20
2007,07,09,06,26,13.20
2007,07,09,06,27,13.30
2007,07,09,06,28,13.30
2007,07,09,06,29,13.30
2007,07,09,06,30,13.30
2007,07,09,06,31,13.40
2007,07,09,06,32,13.40
2007,07,09,06,33,13.40
2007,07,09,06,34,13.50
2007,07,09,06,35,13.50
2007,07,09,06,36,13.60
2007,07,09,06,37,13.60
2007,07,09,06,38,13.70
2007,07,09,06,39,13.70
2007,07,09,06,40,13.80
2007,07,09,06,41,13.80
2007,07,09,06,42,13.90
2007,07,09,06,43,14.00
2007,07,09,06,44,14.00
2007,07,09,06,45,14.10
2007,07,09,06,46,14.10
2007,07,09,06,47,14.20
2007,07,09,06,48,14.30
2007,07,09,06,49,14.40
2007,07,09,06,50,14.50
2007,07,09,06,51,14.60
2007,07,09,06,52,14.60
2007,07,09,06,53,14.80
2007,07,09,06,54,14.90
2007,07,09,06,55,15.00
2007,07,09,06,56,15.10
2007,07,09,06,57,15.20
2007,07,09,06,58,15.30
2007,07,09,06,59,15.30
2007,07,09,07,00,15.30
2007,07,09,07,01,15.30
2007,07,09,07,02,15.30
2007,07,09,07,03,15.40
2007,07,09,07,04,15.40
2007,07,09,07,05,15.50
2007,07,09,07,06,15.50
2007,07,09,07,07,15.60
2007,07,09,07,08,15.70
2007,07,09,07,09,15.70
2007,07,09,07,10,15.80
2007,07,09,07,11,15.90
2007,07,09,07,12,16.00
2007,07,09,07,13,16.10
2007,07,09,07,14,16.20
2007,07,09,07,15,16.30
2007,07,09,07,16,16.40
2007,07,09,07,17,16.50
2007,07,09,07,18,16.60
2007,07,09,07,19,16.70
2007,07,09,07,20,16.70
2007,07,09,07,21,16.80
2007,07,09,07,22,16.80
2007,07,09,07,23,16.90
2007,07,09,07,24,17.00
2007,07,09,07,25,17.00
2007,07,09,07,26,17.00
2007,07,09,07,27,17.10
2007,07,09,07,28,17.10
2007,07,09,07,29,17.10
2007,07,09,07,30,17.20
2007,07,09,07,31,17.20
2007,07,09,07,32,17.30
2007,07,09,07,33,17.30
2007,07,09,07,34,17.30
2007,07,09,07,35,17.30
2007,07,09,07,36,17.30
2007,07,09,07,37,17.40
2007,07,09,07,38,17.50
2007,07,09,07,39,17.50
2007,07,09,07,40,17.60
2007,07,09,07,41,17.70
2007,07,09,07,42,17.80
2007,07,09,07,43,17.90
2007,07,09,07,44,18.00
2007,07,09,07,45,18.10
2007,07,09,07,46,18.20
2007,07,09,07,47,18.20
2007,07,09,07,48,18.30
2007,07,09,07,49,18.40
2007,07,09,07,50,18.50
2007,07,09,07,51,18.50
2007,07,09,07,52,18.60
2007,07,09,07,53,18.60
2007,07,09,07,54,18.70
2007,07,09,07,55,18.70
2007,07,09,07,56,18.80
2007,07,09,07,57,18.80
2007,07,09,07,58,18.80
2007,07,09,07,59,18.90
2007,07,09,08,00,18.90
2007,07,09,08,01,18.90
2007,07,09,08,02,18.90
2007,07,09,08,03,19.00
2007,07,09,08,04,18.90
2007,07,09,08,05,18.90
2007,07,09,08,06,18.90
2007,07,09,08,07,18.80
2007,07,09,08,08,18.80
2007,07,09,08,09,18.70
2007,07,09,08,10,18.60
2007,07,09,08,11,18.60
2007,07,09,08,12,18.60
2007,07,09,08,13,18.60
2007,07,09,08,14,18.60
2007,07,09,08,15,18.60
2007,07,09,08,16,18.60
2007,07,09,08,17,18.70
2007,07,09,08,18,18.80
2007,07,09,08,19,18.80
2007,07,09,08,20,18.90
2007,07,09,08,21,18.80
2007,07,09,08,22,18.80
2007,07,09,08,23,18.80
2007,07,09,08,24,18.90
2007,07,09,08,25,18.90
2007,07,09,08,26,18.90
2007,07,09,08,27,18.90
2007,07,09,08,28,19.00
2007,07,09,08,29,19.10
2007,07,09,08,30,19.10
2007,07,09,08,31,19.10
2007,07,09,08,32,19.20
2007,07,09,08,33,19.30
2007,07,09,08,34,19.40
2007,07,09,08,35,19.40
2007,07,09,08,36,19.40
2007,07,09,08,37,19.50
2007,07,09,08,38,19.50
2007,07,09,08,39,19.50
2007,07,09,08,40,19.50
2007,07,09,08,41,19.50
2007,07,09,08,42,19.50
2007,07,09,08,43,19.60
2007,07,09,08,44,19.70
2007,07,09,08,45,19.70
2007,07,09,08,46,19.90
2007,07,09,08,47,19.90
2007,07,09,08,48,19.90
2007,07,09,08,49,19.90
2007,07,09,08,50,19.70
2007,07,09,08,51,19.40
2007,07,09,08,52,19.40
2007,07,09,08,53,19.20
2007,07,09,08,54,19.10
2007,07,09,08,55,19.10
2007,07,09,08,56,19.10
2007,07,09,08,57,19.10
2007,07,09,08,58,19.20
2007,07,09,08,59,19.30
2007,07,09,09,00,19.40
2007,07,09,09,01,19.50
2007,07,09,09,02,19.60
2007,07,09,09,03,19.80
2007,07,09,09,04,19.90
2007,07,09,09,05,19.90
2007,07,09,09,06,20.10
2007,07,09,09,07,20.10
2007,07,09,09,08,20.10
2007,07,09,09,09,20.20
2007,07,09,09,10,20.20
2007,07,09,09,11,20.20
2007,07,09,09,12,20.30
2007,07,09,09,13,20.40
2007,07,09,09,14,20.40
2007,07,09,09,15,20.50
2007,07,09,09,16,20.60
2007,07,09,09,17,20.70
2007,07,09,09,18,20.80
2007,07,09,09,19,20.80
2007,07,09,09,20,20.80
2007,07,09,09,21,20.80
2007,07,09,09,22,20.70
2007,07,09,09,23,20.70
2007,07,09,09,24,20.70
2007,07,09,09,25,20.60
2007,07,09,09,26,20.50
2007,07,09,09,29,20.20
2007,07,09,09,30,20.20
2007,07,09,09,31,20.20
2007,07,09,09,34,20.20
2007,07,09,09,36,20.40
2007,07,09,09,37,20.40
2007,07,09,09,38,20.50
2007,07,09,09,39,20.50
2007,07,09,09,40,20.50
2007,07,09,09,41,20.60
2007,07,09,09,42,20.70
2007,07,09,09,43,20.80
2007,07,09,09,44,20.90
2007,07,09,09,45,21.00
2007,07,09,09,46,21.10
2007,07,09,09,47,21.10
2007,07,09,09,48,20.90
2007,07,09,09,49,20.40
2007,07,09,09,50,19.80
2007,07,09,09,51,19.40
2007,07,09,09,52,19.00
2007,07,09,09,53,18.70
2007,07,09,09,54,18.40
2007,07,09,09,55,18.10
2007,07,09,09,56,17.80
2007,07,09,09,57,17.50
2007,07,09,09,58,17.50
2007,07,09,09,59,17.40
2007,07,09,10,00,17.50
2007,07,09,10,01,17.40
2007,07,09,10,02,17.20
2007,07,09,10,03,17.00
2007,07,09,10,04,16.80
2007,07,09,10,05,16.70
2007,07,09,10,06,16.60
2007,07,09,10,07,16.50
2007,07,09,10,08,16.40
2007,07,09,10,09,16.40
2007,07,09,10,10,16.20
2007,07,09,10,11,16.20
2007,07,09,10,12,16.20
2007,07,09,10,13,16.20
2007,07,09,10,14,16.30
2007,07,09,10,15,16.40
2007,07,09,10,16,16.50
2007,07,09,10,17,16.60
2007,07,09,10,18,16.70
2007,07,09,10,19,16.90
2007,07,09,10,20,17.00
2007,07,09,10,21,17.20
2007,07,09,10,22,17.30
2007,07,09,10,23,17.30
2007,07,09,10,24,17.20
2007,07,09,10,25,17.20
2007,07,09,10,26,17.20
2007,07,09,10,27,17.30
2007,07,09,10,28,17.40
2007,07,09,10,29,17.40
2007,07,09,10,30,17.30
2007,07,09,10,31,17.30
2007,07,09,10,32,17.40
2007,07,09,10,33,17.50
2007,07,09,10,34,17.70
2007,07,09,10,35,17.80
2007,07,09,10,36,17.90
2007,07,09,10,37,18.00
2007,07,09,10,38,18.20
2007,07,09,10,39,18.20
2007,07,09,10,40,18.20
2007,07,09,10,41,18.30
2007,07,09,10,42,18.50
2007,07,09,10,43,18.60
2007,07,09,10,44,18.60
2007,07,09,10,45,18.60
2007,07,09,10,46,18.70
2007,07,09,10,47,18.80
2007,07,09,10,48,18.90
2007,07,09,10,49,18.90
2007,07,09,10,50,19.00
2007,07,09,10,51,19.10
2007,07,09,10,52,19.20
2007,07,09,10,53,19.30
2007,07,09,10,54,19.30
2007,07,09,10,55,19.40
2007,07,09,10,56,19.60
2007,07,09,10,57,19.60
2007,07,09,10,58,19.30
2007,07,09,10,59,19.00
2007,07,09,11,00,18.80
2007,07,09,11,01,18.80
2007,07,09,11,02,18.80
2007,07,09,11,03,18.80
2007,07,09,11,04,18.90
2007,07,09,11,05,18.90
2007,07,09,11,06,19.00
2007,07,09,11,07,19.20
2007,07,09,11,08,19.40
2007,07,09,11,09,19.50
2007,07,09,11,10,19.70
2007,07,09,11,11,19.70
2007,07,09,11,12,19.70
2007,07,09,11,13,19.70
2007,07,09,11,14,19.90
2007,07,09,11,15,19.90
2007,07,09,11,16,19.90
2007,07,09,11,17,19.80
2007,07,09,11,18,19.70
2007,07,09,11,19,19.80
2007,07,09,11,20,19.90
2007,07,09,11,21,19.90
2007,07,09,11,22,19.90
2007,07,09,11,23,20.10
2007,07,09,11,24,20.20
2007,07,09,11,25,20.40
2007,07,09,11,26,20.50
2007,07,09,11,27,20.30
2007,07,09,11,28,20.20
2007,07,09,11,29,20.00
2007,07,09,11,30,19.90
2007,07,09,11,31,19.90
2007,07,09,11,32,19.90
2007,07,09,11,33,19.90
2007,07,09,11,34,19.90
2007,07,09,11,35,19.90
2007,07,09,11,36,19.80
2007,07,09,11,37,19.80
2007,07,09,11,38,19.80
2007,07,09,11,39,19.90
2007,07,09,11,40,20.10
2007,07,09,11,41,20.30
2007,07,09,11,42,20.50
2007,07,09,11,43,20.70
2007,07,09,11,44,21.00
2007,07,09,11,45,21.30
2007,07,09,11,46,21.50
2007,07,09,11,47,21.40
2007,07,09,11,48,21.30
2007,07,09,11,49,21.30
2007,07,09,11,50,21.40
2007,07,09,11,51,21.50
2007,07,09,11,52,21.60
2007,07,09,11,53,21.70
2007,07,09,11,54,21.70
2007,07,09,11,55,21.70
2007,07,09,11,56,21.70
2007,07,09,11,57,21.70
2007,07,09,11,58,21.70
2007,07,09,11,59,21.60
2007,07,09,12,00,21.50
2007,07,09,12,01,21.40
2007,07,09,12,02,21.50
2007,07,09,12,03,21.60
2007,07,09,12,04,21.50
2007,07,09,12,05,21.40
2007,07,09,12,06,21.30
2007,07,09,12,07,21.30
2007,07,09,12,08,21.30
2007,07,09,12,09,21.50
2007,07,09,12,10,21.60
2007,07,09,12,11,21.80
2007,07,09,12,12,22.00
2007,07,09,12,13,22.10
2007,07,09,12,14,22.30
2007,07,09,12,15,22.50
2007,07,09,12,16,22.60
2007,07,09,12,17,22.80
2007,07,09,12,18,23.00
2007,07,09,12,19,23.10
2007,07,09,12,20,23.20
2007,07,09,12,21,23.30
2007,07,09,12,22,23.30
2007,07,09,12,23,23.30
2007,07,09,12,24,23.40
2007,07,09,12,25,23.60
2007,07,09,12,26,23.70
2007,07,09,12,27,23.70
2007,07,09,12,28,23.80
2007,07,09,12,29,23.90
2007,07,09,12,30,24.00
2007,07,09,12,31,24.10
2007,07,09,12,32,24.20
2007,07,09,12,33,24.30
2007,07,09,12,34,24.30
2007,07,09,12,35,24.40
2007,07,09,12,36,24.50
2007,07,09,12,37,24.50
2007,07,09,12,38,24.50
2007,07,09,12,39,24.50
2007,07,09,12,40,24.50
2007,07,09,12,41,24.60
2007,07,09,12,42,24.70
2007,07,09,12,43,24.70
2007,07,09,12,44,24.60
2007,07,09,12,45,24.60
2007,07,09,12,46,24.50
2007,07,09,12,47,24.50
2007,07,09,12,48,24.60
2007,07,09,12,49,24.70
2007,07,09,12,50,24.70
2007,07,09,12,51,24.70
2007,07,09,12,52,24.70
2007,07,09,12,53,24.80
2007,07,09,12,54,24.90
2007,07,09,12,55,24.90
2007,07,09,12,56,24.90
2007,07,09,12,57,24.90
2007,07,09,12,58,24.80
2007,07,09,12,59,24.60
2007,07,09,13,00,24.50
2007,07,09,13,01,24.50
2007,07,09,13,02,24.50
2007,07,09,13,03,24.50
2007,07,09,13,04,24.50
2007,07,09,13,05,24.50
2007,07,09,13,06,24.50
2007,07,09,13,07,24.40
2007,07,09,13,08,24.40
2007,07,09,13,09,24.40
2007,07,09,13,10,24.40
2007,07,09,13,11,24.30
2007,07,09,13,12,24.30
2007,07,09,13,13,24.20
2007,07,09,13,14,24.00
2007,07,09,13,15,23.80
2007,07,09,13,16,23.80
2007,07,09,13,17,23.70
2007,07,09,13,18,23.60
2007,07,09,13,19,23.40
2007,07,09,13,20,23.40
2007,07,09,13,21,23.40
2007,07,09,13,22,23.40
2007,07,09,13,23,23.40
2007,07,09,13,24,23.40
2007,07,09,13,25,23.40
2007,07,09,13,26,23.50
2007,07,09,13,27,23.50
2007,07,09,13,28,23.40
2007,07,09,13,29,23.30
2007,07,09,13,30,23.30
2007,07,09,13,31,23.20
2007,07,09,13,32,23.20
2007,07,09,13,33,23.30
2007,07,09,13,34,23.40
2007,07,09,13,35,23.60
2007,07,09,13,36,23.60
2007,07,09,13,37,23.60
2007,07,09,13,38,23.60
2007,07,09,13,39,23.70
2007,07,09,13,40,23.70
2007,07,09,13,41,23.70
2007,07,09,13,42,23.70
2007,07,09,13,43,23.70
2007,07,09,13,44,23.70
2007,07,09,13,45,23.60
2007,07,09,13,46,23.40
2007,07,09,13,47,23.20
2007,07,09,13,48,23.10
2007,07,09,13,49,22.90
2007,07,09,13,50,23.00
2007,07,09,13,51,22.90
2007,07,09,13,52,22.80
2007,07,09,13,53,22.60
2007,07,09,13,54,22.50
2007,07,09,13,55,22.40
2007,07,09,13,56,22.40
2007,07,09,13,57,22.40
2007,07,09,13,58,22.50
2007,07,09,13,59,22.60
2007,07,09,14,00,22.70
2007,07,09,14,01,22.80
2007,07,09,14,02,22.80
2007,07,09,14,03,22.70
2007,07,09,14,04,22.80
2007,07,09,14,05,22.90
2007,07,09,14,06,22.90
2007,07,09,14,07,22.90
2007,07,09,14,08,23.00
2007,07,09,14,09,23.10
2007,07,09,14,10,23.00
2007,07,09,14,11,22.90
2007,07,09,14,12,22.90
2007,07,09,14,13,23.00
2007,07,09,14,14,23.10
2007,07,09,14,15,23.10
2007,07,09,14,16,23.10
2007,07,09,14,17,23.10
2007,07,09,14,18,23.10
2007,07,09,14,19,23.20
2007,07,09,14,20,23.30
2007,07,09,14,21,23.30
2007,07,09,14,22,23.40
2007,07,09,14,23,23.40
2007,07,09,14,24,23.30
2007,07,09,14,25,23.30
2007,07,09,14,26,23.30
2007,07,09,14,27,23.40
2007,07,09,14,28,23.50
2007,07,09,14,29,23.60
2007,07,09,14,30,23.60
2007,07,09,14,31,23.70
2007,07,09,14,32,23.50
2007,07,09,14,33,23.30
2007,07,09,14,34,23.10
2007,07,09,14,35,22.90
2007,07,09,14,36,22.90
2007,07,09,14,37,22.80
2007,07,09,14,38,22.90
2007,07,09,14,39,23.00
2007,07,09,14,40,23.20
2007,07,09,14,41,23.30
2007,07,09,14,42,23.30
2007,07,09,14,43,23.30
2007,07,09,14,44,23.20
2007,07,09,14,45,23.10
2007,07,09,14,46,23.10
2007,07,09,14,47,23.10
2007,07,09,14,48,23.10
2007,07,09,14,49,23.10
2007,07,09,14,50,23.20
2007,07,09,14,51,23.30
2007,07,09,14,52,23.40
2007,07,09,14,53,23.50
2007,07,09,14,54,23.60
2007,07,09,14,55,23.60
2007,07,09,14,56,23.40
2007,07,09,14,57,23.50
2007,07,09,14,58,23.60
2007,07,09,14,59,23.70
2007,07,09,15,00,23.70
2007,07,09,15,01,23.60
2007,07,09,15,02,23.40
2007,07,09,15,03,23.30
2007,07,09,15,04,23.20
2007,07,09,15,05,23.10
2007,07,09,15,06,22.90
2007,07,09,15,07,22.90
2007,07,09,15,08,23.10
2007,07,09,15,09,23.10
2007,07,09,15,10,23.30
2007,07,09,15,11,23.40
2007,07,09,15,12,23.60
2007,07,09,15,13,23.70
2007,07,09,15,14,23.80
2007,07,09,15,15,23.90
2007,07,09,15,16,24.00
2007,07,09,15,17,24.10
2007,07,09,15,18,24.20
2007,07,09,15,19,24.40
2007,07,09,15,20,24.50
2007,07,09,15,21,24.50
2007,07,09,15,22,24.50
2007,07,09,15,23,24.40
2007,07,09,15,24,24.30
2007,07,09,15,25,24.10
2007,07,09,15,26,24.10
2007,07,09,15,27,24.10
2007,07,09,15,28,24.10
2007,07,09,15,29,24.10
2007,07,09,15,30,24.00
2007,07,09,15,31,23.80
2007,07,09,15,32,23.70
2007,07,09,15,33,23.70
2007,07,09,15,34,23.70
2007,07,09,15,35,23.70
2007,07,09,15,36,23.70
2007,07,09,15,37,23.80
2007,07,09,15,38,23.90
2007,07,09,15,39,23.90
2007,07,09,15,40,23.90
2007,07,09,15,41,23.90
2007,07,09,15,42,23.90
2007,07,09,15,43,23.90
2007,07,09,15,44,23.70
2007,07,09,15,45,23.60
2007,07,09,15,46,23.60
2007,07,09,15,47,23.50
2007,07,09,15,48,23.40
2007,07,09,15,49,23.50
2007,07,09,15,50,23.40
2007,07,09,15,51,23.30
2007,07,09,15,52,23.40
2007,07,09,15,53,23.50
2007,07,09,15,54,23.60
2007,07,09,15,55,23.60
2007,07,09,15,56,23.60
2007,07,09,15,57,23.40
2007,07,09,15,58,23.30
2007,07,09,15,59,23.40
2007,07,09,16,00,23.60
2007,07,09,16,01,23.60
2007,07,09,16,02,23.50
2007,07,09,16,03,23.40
2007,07,09,16,04,23.30
2007,07,09,16,05,23.30
2007,07,09,16,06,23.40
2007,07,09,16,07,23.50
2007,07,09,16,08,23.60
2007,07,09,16,09,23.60
2007,07,09,16,10,23.40
2007,07,09,16,11,23.30
2007,07,09,16,12,23.30
2007,07,09,16,13,23.30
2007,07,09,16,14,23.30
2007,07,09,16,15,23.40
2007,07,09,16,16,23.40
2007,07,09,16,17,23.40
2007,07,09,16,18,23.40
2007,07,09,16,19,23.30
2007,07,09,16,20,23.30
2007,07,09,16,21,23.30
2007,07,09,16,22,23.30
2007,07,09,16,23,23.30
2007,07,09,16,24,23.40
2007,07,09,16,25,23.50
2007,07,09,16,26,23.60
2007,07,09,16,27,23.60
2007,07,09,16,28,23.60
2007,07,09,16,29,23.60
2007,07,09,16,30,23.50
2007,07,09,16,31,23.40
2007,07,09,16,32,23.30
2007,07,09,16,33,23.20
2007,07,09,16,34,23.20
2007,07,09,16,35,23.20
2007,07,09,16,36,23.30
2007,07,09,16,37,23.40
2007,07,09,16,38,23.40
2007,07,09,16,39,23.40
2007,07,09,16,40,23.40
2007,07,09,16,41,23.30
2007,07,09,16,42,23.30
2007,07,09,16,43,23.30
2007,07,09,16,44,23.40
2007,07,09,16,45,23.50
2007,07,09,16,46,23.60
2007,07,09,16,47,23.60
2007,07,09,16,48,23.50
2007,07,09,16,49,23.30
2007,07,09,16,50,23.30
2007,07,09,16,51,23.30
2007,07,09,16,52,23.30
2007,07,09,16,53,23.40
2007,07,09,16,54,23.60
2007,07,09,16,55,23.70
2007,07,09,16,56,23.80
2007,07,09,16,57,23.80
2007,07,09,16,58,23.70
2007,07,09,16,59,23.70
2007,07,09,17,00,23.70
2007,07,09,17,01,23.70
2007,07,09,17,02,23.80
2007,07,09,17,03,23.90
2007,07,09,17,04,23.90
2007,07,09,17,05,23.80
2007,07,09,17,06,23.70
2007,07,09,17,07,23.70
2007,07,09,17,08,23.80
2007,07,09,17,09,23.80
2007,07,09,17,10,23.90
2007,07,09,17,11,23.80
2007,07,09,17,12,23.80
2007,07,09,17,13,23.80
2007,07,09,17,14,23.80
2007,07,09,17,15,23.80
2007,07,09,17,16,23.80
2007,07,09,17,17,23.90
2007,07,09,17,18,24.10
2007,07,09,17,19,24.00
2007,07,09,17,20,24.10
2007,07,09,17,21,24.00
2007,07,09,17,22,23.90
2007,07,09,17,23,24.00
2007,07,09,17,24,24.10